Location: Unspecified
(0.0000°N, 0.0000°E)
Time: 20:06:13
(UTC+00:00)

SR - All Passes

Search period start: 23 September 2017 00:00
Search period end: 03 October 2017 00:00
Orbit: 581 x 876 km, 66.7° (Epoch: 23 September)

Date Brightness Start Highest point End Pass type
(mag) Time Alt. Az. Time Alt. Az. Time Alt. Az.
23 Sep - 01:49:34 10° NNE 01:52:09 16° ENE 01:54:46 10° ESE night (unlit)
23 Sep - 03:30:50 10° WNW 03:33:53 19° WSW 03:37:02 10° SSW night (unlit)
23 Sep - 14:13:04 10° S 14:18:51 56° ESE 14:24:24 10° NNE daylight
23 Sep - 15:59:04 10° W 16:00:39 11° WNW 16:02:13 10° NW daylight
24 Sep - 02:40:19 10° NNW 02:44:27 58° WSW 02:48:48 10° S night (unlit)
24 Sep - 13:24:47 10° SSE 13:29:24 24° ESE 13:33:53 10° ENE daylight
24 Sep - 15:06:20 10° SW 15:11:16 28° WNW 15:16:02 10° NNW daylight
25 Sep - 01:51:06 10° N 01:55:07 43° ENE 01:59:16 10° SE night (unlit)
25 Sep - 14:16:02 10° SSW 14:21:54 67° WNW 14:27:32 10° NNE daylight
26 Sep - 01:03:24 10° NE 01:05:46 15° ENE 01:08:10 10° ESE night (unlit)
26 Sep - 02:44:17 10° WNW 02:47:30 21° WSW 02:50:50 10° SSW night (unlit)
26 Sep - 13:26:47 10° S 13:32:30 52° ESE 13:38:01 10° NE daylight
26 Sep - 15:12:13 10° W 15:14:19 12° WNW 15:16:22 10° NW daylight
27 Sep - 01:53:54 10° NNW 01:58:05 63° WSW 02:02:28 10° SSE night (unlit)
27 Sep - 12:38:35 10° SSE 12:43:02 22° ESE 12:47:23 10° ENE daylight
27 Sep - 14:19:54 10° SW 14:24:56 30° WNW 14:29:47 10° NNW daylight
28 Sep - 01:04:46 10° N 01:08:43 39° ENE 01:12:51 10° SE night (unlit)
28 Sep - 13:29:41 10° SSW 13:35:34 71° WNW 13:41:11 10° NNE daylight
29 Sep - 00:17:17 10° NE 00:19:24 13° ENE 00:21:32 10° E night (unlit)
29 Sep - 01:57:45 10° WNW 02:01:07 23° WSW 02:04:36 10° SSW night (unlit)
29 Sep - 12:40:29 10° S 12:46:09 49° ESE 12:51:36 10° NE daylight
29 Sep - 14:25:29 10° W 14:27:57 13° WNW 14:30:24 10° NW daylight
30 Sep - 01:07:29 10° NNW 01:11:41 69° WSW 01:16:07 10° SSE night (unlit)
30 Sep - 11:52:24 10° SSE 11:56:41 21° ESE 12:00:51 10° ENE daylight
30 Sep - 13:33:28 10° SW 13:38:35 31° WNW 13:43:31 10° N daylight
01 Oct - 00:18:27 10° N 00:22:21 36° ENE 00:26:25 10° SE night (unlit)
01 Oct - 12:43:20 10° SSW 12:49:13 76° WNW 12:54:50 10° NNE daylight
01 Oct - 23:31:12 10° NE 23:33:01 12° ENE 23:34:51 10° E night (unlit)
02 Oct - 01:11:14 10° NW 01:14:43 24° WSW 01:18:22 10° SSW night (unlit)
02 Oct - 11:54:12 10° S 11:59:49 45° ESE 12:05:11 10° NE daylight
02 Oct - 13:38:49 10° W 13:41:36 14° WNW 13:44:22 10° NW daylight
